Regional Weather Roundup
Issued by NWS

Home | Current Version | Previous Version | Text Only | Print | Product List | Glossary On
Versions: 1 2 3 4 5 6 7 8 9 10 11 12 13 14 15 16 17 18 19 20 21 22 23 24 25 26 27 28 29 30 31 32 33 34 35 36 37 38 39 40 41 42 43 44 45 46 47 48 49 50
000
ASUS43 KLSX 222110
RWRMO

WEATHER SUMMARY FOR MISSOURI
NATIONAL WEATHER SERVICE SPRINGFIELD MO
400 PM CDT FRI JUL 22 2016

NOTE: "FAIR" INDICATES FEW OR NO CLOUDS BELOW 12,000 FEET WITH NO
       SIGNIFICANT WEATHER AND/OR OBSTRUCTIONS TO VISIBILITY.
       CURRENT SKY AND/OR WEATHER CONDITIONS ARE NOT AVAILABLE FOR
       CHILLICOTHE AND FARMINGTON.

MOZ001>031-035>038-043-044-053-054-222200-
...NORTHERN AND WESTERN MISSOURI...

CITY           SKY/WX    TMP DP  RH WIND       PRES   REMARKS
KANSAS CTY INT PTSUNNY   93  78  61 S13       29.97F HX 108
KANSAS C DTWN  SUNNY     94  76  55 S10       29.95F HX 106
LEE`S SUMMIT   SUNNY     93  75  55 S16       29.99F HX 104
ST JOSEPH      SUNNY     92  76  59 S15       29.95F HX 104
CHILLICOTHE      N/A     89  75  63 S8        29.98F HX  99
KIRKSVILLE     MOSUNNY   89  73  59 SW7       30.01F HX  97

$$
MOZ066>068-077>081-088>096-101>105-222200-
...SOUTHWEST MISSOURI...

CITY           SKY/WX    TMP DP  RH WIND       PRES   REMARKS
SPRINGFIELD    SUNNY     93  73  52 SW8       30.02F HX 102
JOPLIN         SUNNY     95  72  47 SW12      30.01F HX 103
BRANSON        PTSUNNY   95  73  49 W6        30.05F HX 105

$$
MOZ032>034-039>042-045>050-055>058-069>072-222200-
...CENTRAL MISSOURI...

CITY           SKY/WX    TMP DP  RH WIND       PRES   REMARKS
COLUMBIA       PTSUNNY   87  73  62 SW10      30.02F HX  94
JEFFERSON CITY CLOUDY    89  74  60 W3        29.99F HX  98
ROLLA          CLOUDY    87  74  64 S7        30.03F HX  95
SEDALIA        CLOUDY    92  74  55 S12       30.02F HX 101
WHITEMAN AFB   MOSUNNY   92  76  58 SW13      29.98F HX 104
OSAGE BEACH    CLOUDY    89  75  63 CALM      30.04S HX  99

$$
MOZ051-052-059>065-222200-
...EAST CENTRAL MISSOURI...

CITY           SKY/WX    TMP DP  RH WIND       PRES   REMARKS
ST LOUIS INTL  CLOUDY    84  71  65 CALM      30.04S
SPIRIT OF STL  CLOUDY    86  73  65 CALM      30.02R HX  93
ST CHARLES     MOSUNNY   84  77  79 E9        30.02S HX  94

$$
MOZ072>076-082>087-097>100-106>115-222200-
...SOUTH CENTRAL AND SOUTHEAST MISSOURI...

CITY           SKY/WX    TMP DP  RH WIND       PRES   REMARKS
CAPE GIRARDEAU CLOUDY    85  79  82 E10       30.00S HX  98
FARMINGTON     PTSUNNY   87  70  56 N3        30.05F HX  92
POPLAR BLUFF   PTSUNNY   95  78  58 N8        29.99S HX 111
WEST PLAINS    SUNNY     93  71  48 SW5       30.06F HX 100

$$




USA.gov is the U.S. government's official web portal to all federal, state and local government web resources and services.